| time (UTC) | temp F | wind direction | speed MPH | gust MPH | rain 1hr in | rain 24hr in | rain mn in | humidity % | barometer mb |
| 20260507061531 | 51 | 126 | 2.0 | 8.0 | 0.00 | 0.00 | 0.00 | 99 | 1013.0 |
| 20260507060038 | 50 | 169 | 5.0 | 9.0 | 0.00 | 0.00 | 0.00 | 100 | 1013.0 |
| 20260507054524 | 49 | 222 | 0.0 | 0.0 | 0.00 | 0.00 | 0.00 | 98 | 1013.4 |
| 20260507053023 | 49 | 222 | 0.0 | 0.0 | 0.00 | 0.00 | 0.00 | 97 | 1013.6 |
| 20260507051520 | 49 | 222 | 0.0 | 0.0 | 0.00 | 0.00 | 0.00 | 97 | 1014.2 |
| 20260507050018 | 49 | 222 | 0.0 | 0.0 | 0.00 | 0.00 | 0.00 | 97 | 1014.6 |
| 20260507044533 | 49 | 222 | 0.0 | 0.0 | 0.00 | 0.00 | 0.00 | 97 | 1014.8 |
| 20260507043014 | 49 | 222 | 0.0 | 0.0 | 0.00 | 0.00 | 0.00 | 97 | 1015.2 |
| 20260507041512 | 49 | 222 | 0.0 | 0.0 | 0.00 | 0.00 | 0.00 | 96 | 1015.5 |
| 20260507040009 | 49 | 222 | 0.0 | 0.0 | 0.00 | 0.00 | 0.00 | 96 | 1015.8 |
| 20260507034506 | 49 | 222 | 0.0 | 3.0 | 0.00 | 0.00 | 0.00 | 96 | 1016.0 |
| 20260507033004 | 50 | 222 | 1.0 | 3.0 | 0.00 | 0.00 | 0.00 | 96 | 1016.2 |
| 20260507031601 | 50 | 222 | 1.0 | 3.0 | 0.00 | 0.00 | 0.00 | 95 | 1016.6 |
| 20260507024559 | 51 | 222 | 0.0 | 0.0 | 0.00 | 0.00 | 0.00 | 93 | 1016.8 |
| 20260507023054 | 51 | 222 | 0.0 | 3.0 | 0.00 | 0.00 | 0.00 | 93 | 1016.8 |
| 20260507021550 | 52 | 213 | 0.0 | 0.0 | 0.00 | 0.00 | 0.00 | 91 | 1017.0 |
| 20260507020051 | 53 | 212 | 0.0 | 4.0 | 0.00 | 0.00 | 0.00 | 91 | 1017.1 |
| 20260507014547 | 53 | 215 | 0.0 | 3.0 | 0.00 | 0.00 | 0.00 | 91 | 1017.2 |
| 20260507013057 | 54 | 170 | 1.0 | 7.0 | 0.00 | 0.00 | 0.00 | 90 | 1017.3 |
| 20260507011545 | 54 | 148 | 4.0 | 7.0 | 0.00 | 0.00 | 0.00 | 89 | 1017.4 |
| 20260507010045 | 54 | 143 | 3.0 | 7.0 | 0.00 | 0.00 | 0.00 | 89 | 1017.4 |
| 20260507004541 | 55 | 200 | 5.0 | 10.0 | 0.00 | 0.00 | 0.00 | 88 | 1017.4 |
| 20260507003042 | 55 | 180 | 4.0 | 11.0 | 0.00 | 0.00 | 0.00 | 87 | 1017.5 |
| 20260507001542 | 55 | 202 | 4.0 | 8.0 | 0.00 | 0.00 | 0.00 | 87 | 1017.5 |
| 20260507000040 | 55 | 186 | 3.0 | 8.0 | 0.00 | 0.00 | 0.00 | 86 | 1017.5 |
| 20260506234540 | 55 | 189 | 2.0 | 10.0 | 0.00 | 0.00 | 0.00 | 86 | 1017.6 |
| 20260506233037 | 55 | 195 | 3.0 | 10.0 | 0.00 | 0.00 | 0.00 | 85 | 1017.3 |
| 20260506231535 | 55 | 211 | 7.0 | 11.0 | 0.00 | 0.00 | 0.00 | 85 | 1017.1 |
| 20260506230033 | 56 | 205 | 6.0 | 14.0 | 0.00 | 0.00 | 0.00 | 83 | 1017.1 |
| 20260506224532 | 56 | 206 | 8.0 | 11.0 | 0.00 | 0.00 | 0.00 | 82 | 1016.8 |
| 20260506223032 | 57 | 188 | 6.0 | 17.0 | 0.00 | 0.00 | 0.00 | 80 | 1016.7 |
| 20260506221529 | 58 | 171 | 8.0 | 15.0 | 0.00 | 0.00 | 0.00 | 79 | 1016.7 |
| 20260506220031 | 59 | 207 | 8.0 | 17.0 | 0.00 | 0.00 | 0.00 | 77 | 1016.6 |
| 20260506214527 | 60 | 188 | 6.0 | 16.0 | 0.00 | 0.00 | 0.00 | 75 | 1016.3 |
| 20260506213026 | 62 | 194 | 9.0 | 19.0 | 0.00 | 0.00 | 0.00 | 73 | 1016.3 |
| 20260506211625 | 62 | 209 | 10.0 | 23.0 | 0.00 | 0.00 | 0.00 | 73 | 1016.2 |
| 20260506210025 | 63 | 183 | 11.0 | 22.0 | 0.00 | 0.00 | 0.00 | 70 | 1015.9 |
| 20260506204526 | 66 | 238 | 10.0 | 26.0 | 0.00 | 0.00 | 0.00 | 65 | 1016.1 |
| 20260506203028 | 67 | 199 | 9.0 | 26.0 | 0.00 | 0.00 | 0.00 | 64 | 1016.1 |
| 20260506201523 | 68 | 158 | 13.0 | 35.0 | 0.00 | 0.00 | 0.00 | 60 | 1016.0 |
| 20260506200023 | 69 | 192 | 21.0 | 42.0 | 0.00 | 0.00 | 0.00 | 57 | 1016.0 |
| 20260506194522 | 70 | 139 | 11.0 | 25.0 | 0.00 | 0.00 | 0.00 | 58 | 1015.9 |
| 20260506193021 | 71 | 205 | 16.0 | 25.0 | 0.00 | 0.00 | 0.00 | 56 | 1016.1 |
| 20260506191521 | 70 | 227 | 12.0 | 28.0 | 0.00 | 0.00 | 0.00 | 58 | 1016.2 |
| 20260506190019 | 70 | 227 | 15.0 | 29.0 | 0.00 | 0.00 | 0.00 | 59 | 1016.3 |
| 20260506184525 | 71 | 190 | 14.0 | 24.0 | 0.00 | 0.00 | 0.00 | 57 | 1016.2 |
| 20260506183018 | 72 | 242 | 15.0 | 26.0 | 0.00 | 0.00 | 0.00 | 54 | 1015.9 |
| 20260506181516 | 71 | 180 | 17.0 | 27.0 | 0.00 | 0.00 | 0.00 | 58 | 1015.8 |
| 20260506180024 | 71 | 235 | 18.0 | 29.0 | 0.00 | 0.00 | 0.00 | 57 | 1015.9 |
| 20260506174513 | 71 | 172 | 16.0 | 31.0 | 0.00 | 0.00 | 0.00 | 57 | 1016.0 |
| 20260506173013 | 71 | 163 | 20.0 | 29.0 | 0.00 | 0.00 | 0.00 | 59 | 1016.1 |
| 20260506171512 | 71 | 217 | 16.0 | 29.0 | 0.00 | 0.00 | 0.00 | 56 | 1016.3 |
| 20260506170015 | 71 | 166 | 15.0 | 36.0 | 0.00 | 0.00 | 0.00 | 59 | 1016.3 |
| 20260506164508 | 71 | 207 | 13.0 | 30.0 | 0.00 | 0.00 | 0.00 | 59 | 1016.5 |
| 20260506163010 | 70 | 197 | 18.0 | 30.0 | 0.00 | 0.00 | 0.00 | 60 | 1016.5 |
| 20260506161509 | 69 | 202 | 16.0 | 25.0 | 0.00 | 0.00 | 0.00 | 61 | 1016.5 |
| 20260506160008 | 70 | 210 | 16.0 | 25.0 | 0.00 | 0.00 | 0.00 | 62 | 1016.4 |
| 20260506154505 | 71 | 236 | 12.0 | 24.0 | 0.00 | 0.00 | 0.00 | 61 | 1016.5 |
| 20260506153004 | 70 | 211 | 14.0 | 30.0 | 0.00 | 0.00 | 0.00 | 62 | 1016.5 |
| 20260506151505 | 71 | 205 | 15.0 | 27.0 | 0.00 | 0.00 | 0.00 | 60 | 1016.6 |
| 20260506144604 | 69 | 218 | 19.0 | 26.0 | 0.00 | 0.00 | 0.00 | 64 | 1016.7 |
| 20260506143056 | 69 | 217 | 13.0 | 26.0 | 0.00 | 0.00 | 0.00 | 67 | 1016.7 |
| 20260506141602 | 68 | 160 | 18.0 | 32.0 | 0.00 | 0.00 | 0.00 | 67 | 1016.9 |
| 20260506140104 | 68 | 209 | 17.0 | 24.0 | 0.00 | 0.00 | 0.00 | 68 | 1016.7 |
| 20260506134550 | 67 | 171 | 18.0 | 27.0 | 0.00 | 0.00 | 0.00 | 70 | 1016.7 |
| 20260506133053 | 67 | 207 | 11.0 | 24.0 | 0.00 | 0.00 | 0.00 | 75 | 1016.7 |
| 20260506131547 | 66 | 226 | 18.0 | 26.0 | 0.00 | 0.00 | 0.00 | 77 | 1016.9 |
| 20260506130044 | 65 | 238 | 11.0 | 26.0 | 0.00 | 0.00 | 0.00 | 80 | 1017.0 |
| 20260506124540 | 63 | 224 | 12.0 | 26.0 | 0.00 | 0.00 | 0.00 | 82 | 1017.2 |
| 20260506123039 | 63 | 202 | 15.0 | 27.0 | 0.00 | 0.00 | 0.00 | 81 | 1016.9 |
| 20260506121538 | 63 | 212 | 15.0 | 28.0 | 0.00 | 0.00 | 0.00 | 80 | 1017.0 |
| 20260506120039 | 63 | 225 | 14.0 | 24.0 | 0.00 | 0.00 | 0.00 | 81 | 1016.9 |
| 20260506114533 | 62 | 226 | 13.0 | 22.0 | 0.00 | 0.00 | 0.00 | 81 | 1016.9 |
| 20260506113031 | 62 | 189 | 14.0 | 24.0 | 0.00 | 0.00 | 0.00 | 82 | 1016.6 |
| 20260506111529 | 61 | 182 | 11.0 | 21.0 | 0.00 | 0.00 | 0.00 | 83 | 1016.8 |
| 20260506110033 | 61 | 222 | 12.0 | 22.0 | 0.00 | 0.00 | 0.00 | 84 | 1016.5 |
| 20260506104524 | 60 | 217 | 14.0 | 25.0 | 0.00 | 0.00 | 0.00 | 85 | 1016.5 |
| 20260506103027 | 60 | 215 | 14.0 | 22.0 | 0.00 | 0.00 | 0.00 | 86 | 1016.3 |
| 20260506101528 | 59 | 222 | 10.0 | 22.0 | 0.00 | 0.00 | 0.00 | 86 | 1016.2 |
| 20260506100028 | 59 | 213 | 14.0 | 23.0 | 0.00 | 0.00 | 0.00 | 87 | 1015.8 |
| 20260506094515 | 58 | 210 | 11.0 | 22.0 | 0.00 | 0.00 | 0.00 | 88 | 1015.6 |
| 20260506093017 | 58 | 188 | 13.0 | 22.0 | 0.00 | 0.00 | 0.00 | 88 | 1015.4 |
| 20260506091510 | 57 | 201 | 12.0 | 22.0 | 0.00 | 0.00 | 0.00 | 89 | 1015.4 |
| 20260506090008 | 57 | 182 | 13.0 | 20.0 | 0.00 | 0.00 | 0.00 | 90 | 1015.0 |
| 20260506084509 | 56 | 209 | 9.0 | 19.0 | 0.00 | 0.00 | 0.00 | 89 | 1014.9 |
| 20260506083010 | 56 | 207 | 10.0 | 24.0 | 0.00 | 0.00 | 0.00 | 90 | 1015.1 |
| 20260506081506 | 56 | 210 | 9.0 | 18.0 | 0.00 | 0.00 | 0.00 | 90 | 1015.1 |
| 20260506073100 | 56 | 196 | 10.0 | 16.0 | 0.00 | 0.00 | 0.00 | 89 | 1015.3 |
| 20260506071600 | 56 | 225 | 9.0 | 17.0 | 0.00 | 0.00 | 0.00 | 89 | 1015.1 |